カタログに戻る

COSMOS 506

運用中軍事LEO
NORAD 6119·PAYLOAD·🇷🇺 Russia

打ち上げ Jul 20, 1972 から Plesetsk Cosmodrome

Loading…

次のパス (今後24時間)

TLE

最新Source: Space-Track

元期: Sep 14, 2026, 12:17 UTC

1 06119U 72057C   26257.51245471 -.00000015  00000-0  97647-5 0  9994
2 06119  74.0244 272.1715 0073742 272.0589 161.3304 12.56208574483239

AllMySatでCOSMOS 506をリアルタイム追跡

Download on the App Store